Regional Weather Roundup
Issued by NWS Wilmington, NC

Home | Current Version | Previous Version | Text Only | Print | Product List | Glossary On
Versions: 1 2 3 4 5 6 7 8 9 10 11 12 13 14 15 16 17 18 19 20 21 22 23 24 25 26 27 28
000
ASUS42 KILM 220313
RWRILM
RWRILM
REGIONAL HOURLY WEATHER ROUNDUP
NATIONAL WEATHER SERVICE WILMINGTON NC
1100 PM EDT FRI JUL 21 2017

NOTE: "FAIR" INDICATES FEW OR NO CLOUDS BELOW 12,000 FEET WITH NO
SIGNIFICANT WEATHER AND/OR OBSTRUCTIONS TO VISIBILITY.

...............WFO WILMINGTON COUNTY WARNING AREA...............

......COASTAL NC AND SC COUNTIES......

CITY           SKY/WX    TMP DP  RH WIND       PRES   REMARKS
WILMINGTON     CLEAR     80  76  87 S13       30.02S
N MYRTLE BEACH CLEAR     80  77  90 SW14      30.03R
MYRTLE BEACH   NOT AVBL

......INLAND NC AND SC COUNTIES.......

CITY           SKY/WX    TMP DP  RH WIND       PRES   REMARKS
LUMBERTON      CLOUDY    81  76  84 S6        29.99S
ELIZABETHTOWN  NOT AVBL
WHITEVILLE     CLEAR     80  73  81 S8        30.01S
FLORENCE       CLEAR     82  76  81 SW8       30.02R
DARLINGTON     CLEAR     78  73  84 S3        30.01S
KINGSTREE      FAIR      79  72  78 SE5       30.02S
HARTSVILLE     FAIR      72  70  94 CALM      30.01S
BENNETTSVILLE  FAIR      81  75  83 S3        30.00S
CONWAY         FAIR      79  73  83 S7        30.03S
GEORGETOWN     FAIR      77  75  94 SW3       30.05S
MARION         FAIR      81  73  78 S9        30.01F

....................REST OF NORTH CAROLINA......................

.........EASTERN NC.........

CITY           SKY/WX    TMP DP  RH WIND       PRES   REMARKS
CAPE HATTERAS  CLEAR     79  74  84 SW9       30.00S
JACKSONVILLE   CLEAR     78  74  87 SW5       30.02R
MOREHEAD CITY  PTCLDY    82  79  90 SW14      30.01S HX  92
KENANSVILLE    CLOUDY    81  73  78 CALM      30.00R
NEW BERN       CLEAR     79  75  87 S7        30.00S
ELIZABETH CITY CLEAR     81  78  91 SW7       29.96R

.........CENTRAL NC.........

CITY           SKY/WX    TMP DP  RH WIND       PRES   REMARKS
RALEIGH DURHAM MOCLDY    81  73  76 SW7       29.99S
ROCKY MOUNT    PTCLDY    78  73  84 S5        29.98R
ROANOKE RAPIDS NOT AVBL
FAYETTEVILLE   PTCLDY    83  75  77 SW5       29.99S HX  90
HOFFMAN        PTCLDY    78  75  90 CALM      30.00S

.........WESTERN NC.........

CITY           SKY/WX    TMP DP  RH WIND       PRES   REMARKS
CHARLOTTE      PTCLDY    83  71  67 S7        30.02R
GREENSBORO     CLOUDY    81  74  79 CALM      30.01R
HICKORY        NOT AVBL
BOONE          NOT AVBL
ASHEVILLE      NOT AVBL

.....................REST OF SOUTH CAROLINA.....................

.........EASTERN SC.........

CITY           SKY/WX    TMP DP  RH WIND       PRES   REMARKS
CHARLESTON     CLEAR     78  75  90 S5        30.03F
BEAUFORT MCAS  CLEAR     82  78  88 S3        30.03S HX  91
HILTON HEAD    CLEAR     82  77  83 VRB7G13   30.04S HX  91

.........CENTRAL SC.........

CITY           SKY/WX    TMP DP  RH WIND       PRES   REMARKS
COLUMBIA       PTCLDY    82  73  74 SW3       30.01S
ORANGEBURG     CLEAR     79  73  82 SW6       30.03R
SUMTER SHAW    PTCLDY    82  74  74 S9        30.00R

.........WESTERN SC.........

CITY           SKY/WX    TMP DP  RH WIND       PRES   REMARKS
GREENVILLE     NOT AVBL
ROCK HILL      CLEAR     81  69  67 SW8       30.03R
ANDERSON       CLEAR     82  72  71 S12       30.03S
CLEMSON        NOT AVBL
GREENWOOD      PTCLDY    81  68  64 S9        30.05R


...................COASTAL AND OFFSHORE REPORTS..................

................LOCAL PIERS AND NC RESERVE................


STATION/POSITION TIME  SKY/WX   TEMP    WIND        PRES    VSBY
                                AIR SEA DIR/SP/G
                 (UTC)          (F)     (DEG/KT/KT) (MB)    (MI)
JOHNY MRCER PIER 0248            81 80  220/ 15/ 18 1015.7R
NC RESRV MASNBRO NOT AVBL
OCEAN CREST PIER NOT AVBL
SPRINGMAID  PIER 0248                               1016.0S


................COASTAL AND OFFSHORE BUOYS................


STATION/POSITION TIME  SKY/WX   TEMP    WIND        PRES    VSBY
                                AIR SEA DIR/SP/G
                 (UTC)          (F)     (DEG/KT/KT) (MB)    (MI)
DIMNDSHOAL 41025 0250            83 84  230/ 17/ 21 1015.7R
WVE H/P(F/S)=  4/ 4 SWL H/P/D(F/S/D)=  2/130/10

CAPE LOOKOUT     0300            81     220/ 11/ 15 1016.1S
ONSLOW BAY 41036 NOT AVBL
ONSLOW BAY 41064 0208            81 82  230/ 16/ 19 1016.7R
ONSLOW BAY 41159 0243               82                N/A
WVE H/P(F/S)=  4/ 4 SWL H/P/D(F/S/D)=  2/130/11

MASNBO INL 41110 0259               81                N/A
WVE H/P(F/S)=  3/ 9

WILM HARBR 41108 0300               81                N/A
WVE H/P(F/S)=  4/ 4

27SE WRITB 41037 0208            82 81  200/ 16/ 21 1016.4R
FRYING PAN 41013 0300            83 84  220/ 16/ 19 1016.9
SUNST NRSH 41024 0208            81 79  230/ 12/ 16 1016.6R
CAPRS NRSH 41029 0208            81 84  220/ 12/ 17 1016.9R
EDISTO     41004 0250            83 84  220/ 10/ 12 1016.9R
WVE H/P(F/S)=  3/ 8 SWL H/P/D(F/S/D)=  2/120/ 8



..........OFFSHORE BUOYS BEYOND 100 NM OFFSHORE...........
.....IN A TRIANGLE---HAT TO BERMUDA TO BAHAMAS TO HAT.....


STATION/POSITION TIME  SKY/WX   TEMP    WIND        PRES    VSBY
                                AIR SEA DIR/SP/G
                 (UTC)          (F)     (DEG/KT/KT) (MB)    (MI)
150E HAT   41001 0300            82 82  220/ 14/ 17 1017.5
W BERMUDA  41048 0300            83 84  240/ 12/ 14 1020.3
ATLANTIC S 41049 0250            81 84  130/  8/ 10 1023.6F
WVE H/P(F/S)=  4/ 9 SWL H/P/D(F/S/D)=  5/110/ 9

E BAHAMAS  41046 0300            83 84   90/ 14/ 16 1021.1
NE BAHAMAS 41047 0250            84 85  120/  6/ 10 1022.0R
WVE H/P(F/S)=  4/ 9 SWL H/P/D(F/S/D)=  3/120/ 9

120E CANVRL41010 0300            84 85  170/ 12/ 14 1018.5

END




USA.gov is the U.S. government's official web portal to all federal, state and local government web resources and services.